Valentine, NE

1:41 AM CDT on May 25, 2017 (GMT -0500)
Miller Field

Weather History for KVTN - September, 2013

Change the Weather History Date:

Wednesday, September 4, 2013

  Actual Average Record
Temperature  
Mean Temperature 81 °F 68 °F  
Max Temperature 93 °F 83 °F 104 °F (1998)
Min Temperature 69 °F 53 °F 36 °F (1962)
Degree Days  
Heating Degree Days 0 2  
Month to date heating degree days 0 8  
Since 1 July heating degree days 3 33  
Cooling Degree Days 16 5  
Month to date cooling degree days 38 21  
Year to date cooling degree days 831 757  
Growing Degree Days 31 (Base 50)    
Moisture  
Dew Point 60 °F    
Average Humidity 55    
Maximum Humidity 73    
Minimum Humidity 36    
Precipitation  
Precipitation 0.00 in 0.05 in 1.30 in (1901)
Month to date precipitation 0.00 0.19  
Year to date precipitation 17.64 16.30  
Snow  
Snow 0.00 in 0.00 in 0.00 in ()
Month to date snowfall 0.0 0.0  
Since 1 July snowfall 0.0 0.0  
Since 1 September snowfall 0.0 0.0  
Snow Depth 0.00 in    
Sea Level Pressure  
Sea Level Pressure 29.97 in    
Wind  
Wind Speed 9 mph (SSE)    
Max Wind Speed 22 mph    
Max Gust Speed 29 mph    
Visibility 10 miles    
Events Thunderstorm    
T = Trace of Precipitation, MM = Missing Value Source: NWS Daily Summary

Daily Weather History Graph

Daily Weather History Graph

Search for Another Location

Airport or City:

Trip Planner

Search our weather history database for the weather conditions in past years. The results will help you decide how hot, cold, wet, or windy it might be!

Date:

Astronomy

Sep. 04, 2013 Rise Set
Actual Time 7:10 AM CDT 8:11 PM CDT
Civil Twilight 6:41 AM CDT 8:39 PM CDT
Nautical Twilight 6:06 AM CDT 9:14 PM CDT
Astronomical Twilight 5:30 AM CDT 9:50 PM CDT
Moon 6:24 AM CDT (9/4) 7:30 PM CDT (9/4)
Length of Visible Light 13h 58m
Length of Day
13h 00m
Waning Crescent, 1% of the Moon is Illuminated
Sep 4
Waning Crescent
Sep 5
New
Sep 12
First Quarter
Sep 19
Full
Sep 26
Last Quarter

Hourly Weather History & Observations

Time (CDT) Temp. Heat Index Dew Point Humidity Pressure Visibility Wind Dir Wind Speed Gust Speed Precip Events Conditions
12:52 AM 75.9 °F - 57.9 °F 54% 29.92 in 10.0 mi SSW 6.9 mph - N/A   Clear
1:52 AM 75.9 °F - 57.9 °F 54% 29.92 in 10.0 mi SSE 9.2 mph - N/A   Mostly Cloudy
2:10 AM 77.0 °F - 57.2 °F 50% 30.00 in 10.0 mi South 12.7 mph 23.0 mph N/A Thunderstorm Mostly Cloudy
2:36 AM 78.8 °F - 57.2 °F 47% 29.98 in 10.0 mi SSW 13.8 mph 19.6 mph N/A   Mostly Cloudy
2:52 AM 78.1 °F - 57.0 °F 48% 29.89 in 10.0 mi South 16.1 mph 28.8 mph N/A   Mostly Cloudy
3:52 AM 75.9 °F - 57.0 °F 52% 29.94 in 10.0 mi ESE 6.9 mph - N/A   Partly Cloudy
4:52 AM 73.0 °F - 57.9 °F 59% 29.94 in 10.0 mi SE 15.0 mph - N/A   Partly Cloudy
5:52 AM 69.1 °F - 60.1 °F 73% 29.95 in 10.0 mi SE 10.4 mph 18.4 mph N/A   Clear
6:52 AM 70.0 °F - 57.9 °F 65% 29.96 in 10.0 mi SSE 12.7 mph - N/A   Clear
7:52 AM 70.0 °F - 57.9 °F 65% 29.98 in 10.0 mi South 13.8 mph 20.7 mph N/A   Clear
8:52 AM 73.0 °F - 57.9 °F 59% 29.99 in 10.0 mi SSE 12.7 mph - N/A   Clear
9:52 AM 77.0 °F - 57.9 °F 52% 30.00 in 10.0 mi South 16.1 mph - N/A   Clear
10:52 AM 79.0 °F - 57.9 °F 48% 30.01 in 10.0 mi South 11.5 mph - N/A   Clear
11:52 AM 82.0 °F 82.1 °F 59.0 °F 45% 30.02 in 10.0 mi SSW 10.4 mph - N/A   Clear
12:52 PM 84.0 °F 84.0 °F 60.1 °F 44% 30.01 in 10.0 mi SSW 8.1 mph - N/A   Clear
1:52 PM 88.0 °F 87.9 °F 61.0 °F 40% 29.99 in 10.0 mi South 8.1 mph - N/A   Clear
2:52 PM 89.1 °F 89.0 °F 61.0 °F 39% 29.98 in 10.0 mi Variable 4.6 mph - N/A   Clear
3:52 PM 91.9 °F 91.8 °F 61.0 °F 35% 29.97 in 10.0 mi Variable 4.6 mph - N/A   Clear
4:52 PM 93.0 °F 93.8 °F 62.1 °F 36% 29.96 in 10.0 mi ESE 8.1 mph - N/A   Clear
5:52 PM 91.0 °F 91.5 °F 62.1 °F 38% 29.96 in 10.0 mi East 8.1 mph - N/A   Clear
6:52 PM 90.0 °F 90.6 °F 63.0 °F 40% 29.97 in 10.0 mi ESE 8.1 mph - N/A   Clear
7:52 PM 84.0 °F 85.4 °F 64.0 °F 51% 29.98 in 10.0 mi East 5.8 mph - N/A   Clear
8:52 PM 81.0 °F 82.5 °F 64.0 °F 56% 29.99 in 10.0 mi East 4.6 mph - N/A   Clear
9:52 PM 82.0 °F 83.0 °F 62.1 °F 51% 30.01 in 10.0 mi ESE 8.1 mph - N/A   Clear
10:52 PM 78.1 °F - 63.0 °F 60% 30.00 in 10.0 mi East 8.1 mph - N/A   Clear
11:52 PM 75.9 °F - 64.0 °F 67% 30.03 in 10.0 mi ESE 5.8 mph - N/A   Clear